When you browse on this site, cookies collect data to enhance your experience and personalize the content and advertising you see.
Visit our Privacy Policy to learn more. By continuing to use the site, you agree to this use of cookies and data.
  • In France
  • List of Countries
  • For 7 days
  • Water Temperature
  • Satellite Maps
  • Weather Map
  • Weather Widgets
  • user-avatar
    Login

    Hourly Weather Smolan

    Today, 23 March, Saturday

    Time Temperature Precipitation Wind Pressure Humidity
    00:00 +4°C° 0 mm 1 mps 658 mmHg 75%
    01:00 +3°C° 0 mm 1 mps 658 mmHg 77%
    02:00 +3°C° 0 mm 1 mps 658 mmHg 79%
    03:00 +3°C° 0 mm 1 mps 658 mmHg 81%
    04:00 +2°C° 0 mm 1 mps 658 mmHg 82%
    05:00 +2°C° 0 mm 1 mps 658 mmHg 84%
    06:00 +4°C° 0 mm 1 mps 658 mmHg 79%
    07:00 +5°C° 0 mm 1 mps 658 mmHg 75%
    08:00 +6°C° 0 mm 1 mps 659 mmHg 70%
    09:00 +8°C° 0 mm 1 mps 659 mmHg 63%
    10:00 +10°C° 0 mm 1 mps 660 mmHg 56%
    11:00 +11°C° 0 mm 1 mps 660 mmHg 49%
    12:00 +12°C° 0 mm 2 mps 660 mmHg 48%
    13:00 +13°C° 0 mm 2 mps 660 mmHg 46%
    14:00 +14°C° 0 mm 2 mps 660 mmHg 44%
    15:00 +13°C° 0 mm 2 mps 659 mmHg 46%
    16:00 +12°C° 0 mm 2 mps 659 mmHg 48%
    17:00 +10°C° 0 mm 2 mps 658 mmHg 50%
    18:00 +8°C° 0 mm 2 mps 658 mmHg 60%
    19:00 +7°C° 0 mm 1 mps 657 mmHg 71%
    20:00 +5°C° 0 mm 1 mps 657 mmHg 81%
    21:00 +5°C° 0 mm 1 mps 657 mmHg 83%
    22:00 +4°C° 0 mm 1 mps 657 mmHg 86%
    23:00 +4°C° 0 mm 1 mps 658 mmHg 89%

    Tomorrow, 24 March, Sunday

    Time Temperature Precipitation Wind Pressure Humidity
    00:00 +3°C° 0 mm 1 mps 657 mmHg 89%
    01:00 +3°C° 0 mm 1 mps 657 mmHg 89%
    02:00 +2°C° 0 mm 1 mps 657 mmHg 89%
    03:00 +2°C° 0 mm 1 mps 657 mmHg 88%
    04:00 +2°C° 0 mm 1 mps 657 mmHg 87%
    05:00 +1°C° 0 mm 1 mps 657 mmHg 86%
    06:00 +2°C° 0 mm 1 mps 657 mmHg 81%
    07:00 +3°C° 0 mm 1 mps 657 mmHg 75%
    08:00 +4°C° 0 mm 1 mps 658 mmHg 70%
    09:00 +5°C° 0 mm 2 mps 658 mmHg 63%
    10:00 +7°C° 0 mm 2 mps 659 mmHg 56%
    11:00 +8°C° 0 mm 3 mps 659 mmHg 49%
    12:00 +9°C° 0 mm 3 mps 659 mmHg 46%
    13:00 +10°C° 0 mm 3 mps 659 mmHg 43%
    14:00 +10°C° 0 mm 3 mps 658 mmHg 40%
    15:00 +10°C° 0 mm 3 mps 658 mmHg 42%
    16:00 +9°C° 0 mm 2 mps 657 mmHg 45%
    17:00 +9°C° 0 mm 2 mps 657 mmHg 47%
    18:00 +7°C° 0 mm 2 mps 656 mmHg 56%
    19:00 +6°C° 0 mm 1 mps 656 mmHg 64%
    20:00 +4°C° 0 mm 1 mps 656 mmHg 72%
    21:00 +4°C° 0 mm 1 mps 656 mmHg 72%
    22:00 +4°C° 0 mm 1 mps 656 mmHg 71%
    23:00 +3°C° 0 mm 1 mps 656 mmHg 70%

    Day after tomorrow, 25 March, Monday

    Time Temperature Precipitation Wind Pressure Humidity
    00:00 +3°C° 0 mm 1 mps 655 mmHg 69%
    01:00 +3°C° 0 mm 1 mps 655 mmHg 68%
    02:00 +2°C° 0 mm 1 mps 655 mmHg 67%
    03:00 +2°C° 0 mm 1 mps 655 mmHg 67%
    04:00 +2°C° 0 mm 1 mps 654 mmHg 66%
    05:00 +2°C° 0 mm 1 mps 654 mmHg 65%
    06:00 +4°C° 0 mm 1 mps 654 mmHg 61%
    07:00 +4°C° 0 mm 0 mps 655 mmHg 57%
    08:00 +6°C° 0 mm 0 mps 655 mmHg 53%
    09:00 +8°C° 0 mm 0 mps 656 mmHg 48%
    10:00 +11°C° 0 mm 1 mps 656 mmHg 43%
    11:00 +13°C° 0 mm 1 mps 656 mmHg 39%
    12:00 +13°C° 0 mm 1 mps 656 mmHg 39%
    13:00 +14°C° 0 mm 1 mps 655 mmHg 40%
    14:00 +14°C° 0 mm 2 mps 655 mmHg 41%
    15:00 +13°C° 0 mm 2 mps 654 mmHg 46%
    16:00 +12°C° 0 mm 1 mps 653 mmHg 52%
    17:00 +11°C° 0 mm 1 mps 652 mmHg 58%
    18:00 +10°C° 0 mm 1 mps 652 mmHg 68%
    19:00 +8°C° 0 mm 1 mps 651 mmHg 78%
    20:00 +6°C° 0 mm 1 mps 651 mmHg 89%
    21:00 +6°C° 0 mm 1 mps 651 mmHg 90%
    22:00 +6°C° 0 mm 1 mps 651 mmHg 91%
    23:00 +6°C° 0 mm 1 mps 651 mmHg 92%

    26 March, Tuesday

    Time Temperature Precipitation Wind Pressure Humidity
    00:00 +5°C° 0 mm 1 mps 651 mmHg 91%
    01:00 +5°C° 0 mm 1 mps 650 mmHg 91%
    02:00 +5°C° 0 mm 1 mps 650 mmHg 90%
    03:00 +5°C° 0 mm 1 mps 650 mmHg 89%
    04:00 +5°C° 0 mm 1 mps 650 mmHg 88%
    05:00 +4°C° 0 mm 1 mps 650 mmHg 87%
    06:00 +6°C° 0 mm 1 mps 650 mmHg 82%
    07:00 +7°C° 0 mm 1 mps 651 mmHg 77%
    08:00 +8°C° 0 mm 1 mps 652 mmHg 72%
    09:00 +8°C° 0.4 mm 1 mps 652 mmHg 70%
    10:00 +8°C° 0.4 mm 1 mps 652 mmHg 68%
    11:00 +8°C° 0.4 mm 2 mps 653 mmHg 66%
    12:00 +7°C° 0.7 mm 2 mps 652 mmHg 70%
    13:00 +6°C° 0.7 mm 2 mps 652 mmHg 74%
    14:00 +5°C° 0.7 mm 2 mps 651 mmHg 78%
    15:00 +4°C° 1.1 mm 2 mps 651 mmHg 80%
    16:00 +4°C° 1.1 mm 2 mps 651 mmHg 82%
    17:00 +3°C° 1.1 mm 2 mps 651 mmHg 84%
    18:00 +2°C° 0.6 mm 2 mps 652 mmHg 84%
    19:00 +2°C° 0.6 mm 2 mps 652 mmHg 84%
    20:00 0°C° 0.6 mm 3 mps 652 mmHg 84%
    21:00 0°C° 0.6 mm 3 mps 653 mmHg 86%
    22:00 -1°C° 0.6 mm 2 mps 653 mmHg 88%
    23:00 -1°C° 0.6 mm 2 mps 653 mmHg 90%

    27 March, Wednesday

    Time Temperature Precipitation Wind Pressure Humidity
    00:00 -1°C° 0.8 mm 3 mps 653 mmHg 91%
    01:00 -2°C° 0.8 mm 3 mps 653 mmHg 91%
    02:00 -2°C° 0.8 mm 3 mps 654 mmHg 92%
    03:00 -2°C° 0.4 mm 3 mps 654 mmHg 91%
    04:00 -4°C° 0.4 mm 3 mps 654 mmHg 91%
    05:00 -4°C° 0.4 mm 3 mps 654 mmHg 90%
    06:00 -4°C° 0.2 mm 3 mps 654 mmHg 89%
    07:00 -4°C° 0.2 mm 3 mps 654 mmHg 88%
    08:00 -4°C° 0.2 mm 3 mps 655 mmHg 87%
    09:00 -2°C° 0.2 mm 3 mps 655 mmHg 84%
    10:00 -3°C° 0.2 mm 4 mps 655 mmHg 82%
    11:00 -2°C° 0.2 mm 4 mps 656 mmHg 80%
    12:00 -1°C° 0.1 mm 4 mps 656 mmHg 77%
    13:00 -1°C° 0.1 mm 4 mps 656 mmHg 75%
    14:00 0°C° 0.1 mm 4 mps 656 mmHg 73%
    15:00 +1°C° 0 mm 3 mps 656 mmHg 72%
    16:00 +1°C° 0 mm 3 mps 656 mmHg 72%
    17:00 +1°C° 0 mm 3 mps 656 mmHg 71%
    18:00 0°C° 0 mm 3 mps 656 mmHg 77%
    19:00 -2°C° 0 mm 3 mps 656 mmHg 82%
    20:00 -3°C° 0 mm 2 mps 656 mmHg 87%
    21:00 -3°C° 0 mm 2 mps 656 mmHg 88%
    22:00 -4°C° 0 mm 2 mps 656 mmHg 89%
    23:00 -4°C° 0 mm 2 mps 656 mmHg 90%

    28 March, Thursday

    Time Temperature Precipitation Wind Pressure Humidity
    00:00 -4°C° 0 mm 2 mps 656 mmHg 90%
    01:00 -5°C° 0 mm 2 mps 656 mmHg 91%
    02:00 -6°C° 0 mm 2 mps 656 mmHg 92%
    03:00 -6°C° 0 mm 2 mps 656 mmHg 91%
    04:00 -6°C° 0 mm 2 mps 656 mmHg 90%
    05:00 -6°C° 0 mm 2 mps 656 mmHg 89%
    06:00 -5°C° 0 mm 2 mps 657 mmHg 83%
    07:00 -3°C° 0 mm 2 mps 658 mmHg 78%
    08:00 -2°C° 0 mm 2 mps 658 mmHg 72%
    09:00 +1°C° 0 mm 2 mps 659 mmHg 69%
    10:00 +2°C° 0 mm 2 mps 659 mmHg 66%
    11:00 +2°C° 0 mm 3 mps 660 mmHg 63%
    12:00 +2°C° 0.2 mm 3 mps 659 mmHg 64%
    13:00 +2°C° 0.2 mm 3 mps 659 mmHg 65%
    14:00 +2°C° 0.2 mm 3 mps 659 mmHg 66%
    15:00 +2°C° 0.3 mm 3 mps 659 mmHg 68%
    16:00 +1°C° 0.3 mm 3 mps 658 mmHg 71%
    17:00 +1°C° 0.3 mm 3 mps 658 mmHg 73%
    18:00 -1°C° 0.1 mm 3 mps 658 mmHg 76%
    19:00 -2°C° 0.1 mm 3 mps 658 mmHg 79%
    20:00 -5°C° 0.1 mm 3 mps 658 mmHg 81%
    21:00 -5°C° 0 mm 3 mps 658 mmHg 81%
    22:00 -6°C° 0 mm 3 mps 658 mmHg 81%
    23:00 -6°C° 0 mm 3 mps 658 mmHg 81%
    Show more